DW8722 Weather Reports


time (UTC)temp
F
wind
direction
speed
knots
gust
knots
rain 1hr
in
rain 24hr
in
rain mn
in
humidity
%
barometer
mb
20260503013346 69 187 0.0 0.0 0.00 0.00 0.00 56 1018.7
20260503012356 70 276 0.0 0.0 0.00 0.00 0.00 56 1018.6
20260503011347 71 276 0.0 0.0 0.00 0.00 0.00 56 1018.6
20260503010315 72 276 0.0 0.0 0.00 0.00 0.00 57 1018.5
20260503005316 73 276 0.0 0.0 0.00 0.00 0.00 54 1018.4
20260503004242 74 279 0.0 0.0 0.00 0.00 0.00 48 1018.4
20260503003302 75 272 0.0 0.0 0.00 0.00 0.00 44 1018.3
20260503001109 75 329 0.0 0.0 0.00 0.00 0.00 41 1018.4
20260503000121 74 279 0.0 0.0 0.00 0.00 0.00 42 1018.4
20260502235106 74 298 0.0 0.0 0.00 0.00 0.00 42 1018.5
20260502234119 75 273 0.9 4.3 0.00 0.00 0.00 42 1018.5
20260502231950 76 315 0.9 7.0 0.00 0.00 0.00 40 1018.6
20260502230921 76 245 1.7 6.1 0.00 0.00 0.00 40 1018.6
20260502225927 75 234 0.9 5.2 0.00 0.00 0.00 40 1018.6
20260502224943 76 211 0.0 5.2 0.00 0.00 0.00 41 1018.6
20260502223940 75 319 3.5 11.3 0.00 0.00 0.00 39 1018.7
20260502221834 75 5 2.6 7.0 0.00 0.00 0.00 40 1018.8
20260502220839 75 319 4.3 8.7 0.00 0.00 0.00 39 1018.9
20260502215820 75 305 0.9 8.7 0.00 0.00 0.00 39 1019.0
20260502213657 75 333 1.7 7.0 0.00 0.00 0.00 40 1019.2
20260502212649 75 279 5.2 14.8 0.00 0.00 0.00 39 1019.4
20260502204205 74 308 2.6 12.2 0.00 0.00 0.00 43 1019.9
20260502203201 74 302 3.5 12.2 0.00 0.00 0.00 38 1020.0
20260502202211 75 329 0.9 5.2 0.00 0.00 0.00 40 1020.0
20260502200137 74 313 2.6 8.7 0.00 0.00 0.00 40 1020.3
20260502195139 74 302 1.7 8.7 0.00 0.00 0.00 43 1020.4
20260502194106 74 22 2.6 7.8 0.00 0.00 0.00 38 1020.5
20260502193108 73 300 2.6 7.8 0.00 0.00 0.00 41 1020.6
20260502192114 74 330 2.6 7.8 0.00 0.00 0.00 40 1020.7
20260502191139 73 267 2.6 7.8 0.00 0.00 0.00 42 1020.8
20260502190144 73 284 2.6 9.6 0.00 0.00 0.00 42 1021.0
20260502185123 72 223 2.6 9.6 0.00 0.00 0.00 39 1021.1
20260502184051 73 331 2.6 8.7 0.00 0.00 0.00 44 1021.2
20260502183019 73 294 2.6 8.7 0.00 0.00 0.00 40 1021.4
20260502182033 73 323 2.6 8.7 0.00 0.00 0.00 41 1021.5
20260502181044 72 277 0.0 3.5 0.00 0.00 0.00 39 1021.6
20260502163932 69 42 1.7 4.3 0.00 0.00 0.00 41 1022.2
20260502162912 69 344 0.9 3.5 0.00 0.00 0.00 41 1022.3
20260502161931 69 46 0.9 6.1 0.00 0.00 0.00 42 1022.3
20260502160926 68 290 2.6 6.1 0.00 0.00 0.00 41 1022.3
20260502151819 65 28 1.7 7.0 0.00 0.00 0.00 52 1022.2
20260502150823 65 318 1.7 7.0 0.00 0.00 0.00 54 1022.2
20260502130605 50 0 0.0 0.9 0.00 0.00 0.00 90 1021.2
20260502123643 47 337 0.0 0.0 0.00 0.00 0.00 89 1020.9
20260502122653 47 337 0.0 0.0 0.00 0.00 0.00 89 1020.8
20260502121639 46 317 0.0 0.9 0.00 0.00 0.00 90 1020.5
20260502120632 46 325 0.9 2.6 0.00 0.00 0.00 90 1020.5
20260502115604 46 321 0.0 2.6 0.00 0.00 0.00 90 1020.3
20260502114605 46 305 0.0 0.9 0.00 0.00 0.00 89 1020.3
20260502113549 46 294 0.0 0.0 0.00 0.00 0.00 90 1020.0
20260502111432 47 295 0.0 0.0 0.00 0.00 0.00 89 1019.8
20260502110455 47 292 0.0 0.0 0.00 0.00 0.00 90 1019.6
20260502105437 47 298 0.0 0.0 0.00 0.00 0.00 90 1019.5
20260502104439 47 307 0.0 0.0 0.00 0.00 0.00 90 1019.3
20260502103448 48 313 0.0 0.0 0.00 0.00 0.00 90 1019.2
20260502102500 48 285 0.0 0.0 0.00 0.00 0.00 90 1019.3
20260502101439 48 285 0.0 0.0 0.00 0.00 0.00 90 1019.2
20260502100408 49 285 0.0 0.0 0.00 0.00 0.00 90 1019.2
20260502091309 48 281 0.0 0.9 0.00 0.00 0.00 90 1019.1
20260502090255 48 279 0.0 0.9 0.00 0.00 0.00 90 1019.0
20260502071130 50 318 0.0 0.0 0.00 0.00 0.00 92 1019.0
20260502065050 51 298 0.0 0.0 0.00 0.00 0.00 91 1019.0
20260502064100 51 284 0.0 0.0 0.00 0.00 0.00 91 1019.0
20260502063118 51 286 0.0 0.0 0.00 0.00 0.00 91 1019.0
20260502062143 50 286 0.0 0.0 0.00 0.00 0.00 90 1019.1
20260502055941 51 286 0.0 0.0 0.00 0.01 0.00 90 1019.1
20260502054930 52 286 0.0 0.0 0.00 0.01 0.00 91 1019.2
20260502053940 52 291 0.0 0.0 0.00 0.01 0.00 90 1019.3
20260502052925 52 250 0.0 0.0 0.00 0.01 0.00 90 1019.2
20260502051852 53 250 0.0 0.0 0.00 0.01 0.00 90 1019.1
20260502050846 53 250 0.0 0.0 0.00 0.02 0.00 89 1019.0
20260502044808 54 248 0.0 0.0 0.00 0.02 0.02 89 1018.8
20260502043825 54 248 0.0 0.0 0.00 0.02 0.02 89 1018.7
20260502042824 54 233 0.0 0.0 0.00 0.02 0.02 89 1018.7
20260502041836 55 227 0.0 0.0 0.00 0.02 0.02 88 1018.8
20260502040805 55 227 0.0 0.0 0.00 0.02 0.02 88 1018.9
20260502034626 56 129 0.0 0.0 0.00 0.02 0.02 87 1018.9
20260502033601 56 129 0.0 0.0 0.00 0.02 0.02 87 1018.8
20260502032615 57 129 0.0 0.0 0.00 0.02 0.02 85 1018.8
20260502031627 57 129 0.0 0.0 0.00 0.02 0.02 85 1018.7
20260502030626 57 129 0.0 0.0 0.00 0.02 0.02 85 1018.6
20260502024457 58 129 0.0 0.0 0.00 0.02 0.02 85 1018.6
20260502022251 59 129 0.0 0.0 0.00 0.02 0.02 84 1018.3
20260502021250 59 129 0.0 0.0 0.00 0.02 0.02 82 1018.0